Tracking 18630 objects as of 24-May-2017
HD Live streaming from Space Station
objects crossing your sky now

N-1 R/B

Track N-1 R/B now!
10-day predictions


NORAD ID: 8710
Int'l Code: 1976-019B
Perigee: 995.9 km
Apogee: 1,018.6 km
Inclination: 69.7 °
Period: 105.1 minutes
Semi major axis: 7378 km
RCS: 1.547 m2 (large)
Launch date: February 29, 1976
Source: Japan (JPN)
Launch site: TANEGASHIMA SPACE CENTER (TNSTA)

Note: This is a ROCKET BODY
Your satellite tracking list
Your tracking list is empty





NASA's NSSDC Master Catalog

Two Line Element Set (TLE):
1  8710U 76019B   17144.24990466 -.00000049 +00000-0 +27782-5 0  9991
2  8710 069.6773 250.5099 0015387 297.7715 080.6112 13.69839780061883
Source of the keplerian elements: AFSPC